Regional Weather Roundup
Issued by NWS

Home | Current Version | Previous Version | Graphics & Text | Print | Product List | Glossary On
Versions: 1 2 3 4 5 6 7 8 9 10 11 12 13 14 15 16 17 18 19 20 21 22 23 24 25 26 27 28 29 30 31 32 33 34 35 36 37 38 39 40 41 42 43 44 45 46 47 48 49 50
126
ASUS43 KOAX 221102
RWRNE

WEATHER ROUNDUP FOR NEBRASKA
NATIONAL WEATHER SERVICE OMAHA NE
500 AM CST SUN JAN 22 2017

NOTES: SATELLITE DATA IS BEING USED TO AUGMENT CLOUD COVER ABOVE
       12000 FEET.
       "FAIR" INDICATES FEW OR NO CLOUDS BELOW 12,000 FEET WITH NO
       SIGNIFICANT WEATHER AND/OR OBSTRUCTIONS TO VISIBILITY.

  * THESE STATIONS DO NOT REPORT WEATHER SUCH AS RAIN...SNOW OR FOG.

NEZ001>004-019>022-054>056-221200-
NEBRASKA PANHANDLE

CITY           SKY/WX    TMP DP  RH WIND       PRES   REMARKS
SCOTTSBLUFF    CLEAR     25  20  81 NW6       29.78R WCI  18
ALLIANCE       CLEAR     20  17  88 W5        29.74R WCI  13
CHADRON        CLEAR     21  18  88 SW7       29.78R WCI  12
KIMBALL        CLEAR     30  24  77 NW9       29.76R WCI  22
SIDNEY         CLOUDY    28  22  78 NW13      29.75R WCI  17
$$

NEZ057>060-069>072-079>082-221200-
SOUTHWEST NEBRASKA

CITY           SKY/WX    TMP DP  RH WIND       PRES   REMARKS
NORTH PLATTE   CLEAR     21  19  92 NW5       29.72R WCI  15
IMPERIAL       CLEAR     29  24  82 MISG      29.73R
LEXINGTON      CLEAR     29  27  91 W7        29.71R WCI  22
MCCOOK         CLEAR     29  27  92 NW3       29.73R
OGALLALA       CLOUDY    30  27  86 CALM      29.74R
$$

NEZ005>010-023>029-035>040-094-221200-
NORTH CENTRAL NEBRASKA

CITY           SKY/WX    TMP DP  RH WIND       PRES   REMARKS
VALENTINE      CLEAR     24  21  88 W8        29.72R WCI  15
AINSWORTH      CLEAR     25  24  94 NW7       29.70R WCI  17
BROKEN BOW     CLEAR     31  28  89 N8        29.69R WCI  23
O`NEILL        CLOUDY    29  27  91 NW8       29.69R WCI  21
ORD            CLEAR     30  25  81 NW10      29.68R WCI  21
THEDFORD       CLEAR     26  25  94 W8        29.72R WCI  18
$$

NEZ041-046>049-061>064-073>077-083>087-221200-
SOUTH CENTRAL NEBRASKA

CITY           SKY/WX    TMP DP  RH WIND       PRES   REMARKS
GRAND ISLAND   CLOUDY    28  27  96 NW7       29.69R WCI  21
AURORA         CLEAR     32  31  96 NW9       29.68R WCI  24
HASTINGS       CLEAR     32  29  88 NW9       29.69R WCI  24
HEBRON         CLEAR     33  31  92 NW9       29.66R WCI  25
HOLDREGE       CLEAR     29  28  92 NW5       29.70R WCI  24
KEARNEY *      CLOUDY   N/A N/A N/A MISG        N/A
YORK           CLEAR     32  32 100 NW8       29.67R WCI  25
$$

NEZ011>018-030>034-042>045-221200-
NORTHEAST NEBRASKA

CITY           SKY/WX    TMP DP  RH WIND       PRES   REMARKS
NORFOLK        CLOUDY    28  27  96 N12       29.67R FOG     WCI  18
ALBION         CLEAR     29  25  84 NW13      29.67R WCI  19
BLAIR          CLOUDY    31  30  95 NW12      29.66R FOG     WCI  22
FREMONT        CLOUDY    31  31 100 NW8       29.68R FOG     WCI  23
TEKAMAH        CLOUDY    32  29  88 N12       29.67R WCI  23
WAYNE          CLOUDY    31  30  96 N13G22    29.67R WCI  21
$$

NEZ050>053-065>068-078-088>093-221200-
SOUTHEAST NEBRASKA

CITY           SKY/WX    TMP DP  RH WIND       PRES   REMARKS
LINCOLN        FOG       23  22  96 N5        29.68R VSB 1   WCI  17
OMAHA EPPLEY   CLOUDY    32  28  85 N12       29.67R FOG     WCI  23
BEATRICE       CLEAR     33  32  97 N9        29.64R WCI  25
FALLS CITY     CLOUDY    36  34  92 N9        29.62R WCI  29
NEBRASKA CITY  CLEAR     32  32 100 N13       29.63S WCI  22
PLATTSMOUTH    CLEAR     30  28  91 NW9       29.65R FOG     WCI  22
$$

NEZ044-045-051>053-067-221200-
OMAHA AREA

CITY           SKY/WX    TMP DP  RH WIND       PRES   REMARKS
OMAHA EPPLEY   CLOUDY    32  28  85 N12       29.67R FOG     WCI  23
BLAIR          CLOUDY    31  30  95 NW12      29.66R FOG     WCI  22
FREMONT        CLOUDY    31  31 100 NW8       29.68R FOG     WCI  23
MILLARD        MOCLDY    33  31  93 N8        29.68R WCI  26
OFFUTT AFB     MOCLDY    32  32 100 N10       29.66R WCI  24
PLATTSMOUTH    CLEAR     30  28  91 NW9       29.65R FOG     WCI  22
WAHOO          FAIR      29  28  95 CALM      29.68R
$$




USA.gov is the U.S. government's official web portal to all federal, state and local government web resources and services.